Date,TemperatureHighF,TemperatureAvgF,TemperatureLowF,DewpointHighF,DewpointAvgF,DewpointLowF,HumidityHigh,HumidityAvg,HumidityLow,PressureMaxIn,PressureMinIn,WindSpeedMaxMPH,WindSpeedAvgMPH,GustSpeedMaxMPH,PrecipitationSumIn
2013-5-1,90.0,81.0,74.0,69.0,65.0,61.0,72,60,39,0.00,40.00,8,7,17,0.02
2013-5-2,88.0,80.3,75.0,71.0,66.6,63.0,74,64,47,0.00,40.00,8,6,17,0.02
2013-5-3,91.0,80.2,75.0,70.0,65.2,61.0,74,62,37,0.00,40.00,8,4,15,0.01
2013-5-4,87.0,79.5,74.0,71.0,67.6,61.0,75,67,56,0.00,40.00,4,2,9,0.18
2013-5-5,78.0,76.7,74.0,70.0,68.3,66.0,77,76,74,0.00,40.00,6,3,17,2.52
2013-5-6,91.0,79.4,73.0,69.0,62.8,53.0,77,59,33,0.00,40.00,4,2,10,1.65
2013-5-7,91.0,80.7,73.0,66.0,60.7,55.0,62,51,40,0.00,40.00,5,3,10,0.01
2013-5-8,93.0,80.5,70.0,65.0,58.4,38.0,72,49,22,0.00,40.00,5,2,11,0.00
2013-5-9,94.0,82.3,75.0,69.0,65.0,57.0,72,57,39,0.00,40.00,7,4,12,0.00
2013-5-10,94.0,80.9,76.0,72.0,63.0,-99.9,70,60,41,0.00,40.00,10,4,19,0.00
2013-5-11,96.0,78.7,74.0,68.0,63.3,-99.9,74,63,41,0.00,40.00,14,8,25,0.00
2013-5-12,87.0,79.5,74.0,69.0,66.4,63.0,74,65,52,0.00,40.00,14,12,25,0.00
2013-5-13,85.0,79.3,76.0,72.0,68.9,67.0,76,71,61,0.00,40.00,12,10,25,0.14
2013-5-14,91.0,81.2,76.0,71.0,66.9,63.0,77,63,46,0.00,40.00,15,11,30,0.02
2013-5-15,91.0,81.0,76.0,69.0,65.1,61.0,73,60,41,0.00,40.00,13,8,27,0.02
2013-5-16,91.0,77.7,76.0,69.0,48.7,-99.9,74,58,37,0.00,40.00,13,9,26,0.00
2013-5-17,92.0,80.8,74.0,67.0,60.2,-99.9,69,54,32,0.00,40.00,12,8,22,0.00
2013-5-18,93.0,80.3,76.0,70.0,66.0,62.0,69,62,45,0.00,40.00,10,5,16,0.00
2013-5-19,96.0,81.6,74.0,71.0,63.1,57.0,70,55,41,0.00,40.00,9,4,14,0.00
2013-5-20,92.0,79.3,71.0,66.0,56.0,45.0,72,48,21,0.00,40.00,7,3,13,0.00
2013-5-21,95.0,80.1,72.0,64.0,59.7,52.0,71,52,26,0.00,40.00,6,3,11,0.00
2013-5-22,93.0,82.0,74.0,70.0,66.4,60.0,76,61,37,0.00,40.00,6,4,11,0.00
2013-5-23,96.0,83.5,78.0,72.0,65.3,60.0,73,56,34,0.00,40.00,10,4,17,0.00
2013-5-24,93.0,82.2,77.0,69.0,66.0,61.0,71,59,38,0.00,40.00,14,8,26,0.00
2013-5-25,90.0,81.0,75.0,69.0,65.6,63.0,73,60,45,0.00,40.00,15,9,27,0.00
2013-5-26,91.0,81.3,74.0,68.0,62.8,58.0,72,56,34,0.00,40.00,13,9,25,0.00
2013-5-27,92.0,81.9,76.0,68.0,63.4,58.0,68,55,34,0.00,40.00,11,9,22,0.00
2013-5-28,99.0,80.6,76.0,71.0,67.1,63.0,76,65,34,0.00,40.00,11,6,19,2.93
2013-5-29,90.0,81.3,78.0,73.0,69.4,66.0,74,68,51,0.00,40.00,10,4,17,1.94
2013-5-30,93.0,81.8,77.0,76.0,69.7,64.0,75,67,50,0.00,40.00,8,5,16,0.09
2013-5-31,94.0,81.1,76.0,73.0,69.5,66.0,77,69,51,0.00,40.00,10,6,17,0.04